Hourly Data Report for August 31, 2003

SHERBROOKE A
QUEBEC

45°26'00.000" N
71°41'00.000" W
241.40 m
7028124
71610
YSC

Download Data

Hourly Data (August 2003)
Hourly Data Report for August 31, 2003
TIME
LST
Temp Definition
°C
Dew Point Definition
°C
Rel Hum Definition
%
Precip. Amount Definition
mm

Wind Dir Definition
10's deg

Wind Spd Definition
km/h
Visibility Definition
km
Stn Press Definition
kPa
Hmdx Definition


Wind Chill Definition


Weather Definition


00:00 2.9 2.0 94   9 4 6.4 99.54      
01:00 2.8 1.9 94     0 15.0 99.58      
02:00 2.1 1.1 93     0 15.0 99.61      
03:00 2.7 1.9 94   9 4 15.0 99.68      
04:00 2.2 1.5 95     0 12.9 99.68      
05:00 2.8 2.0 94   9 4 15.0 99.68      
06:00 4.1 3.5 96   13 4 15.0 99.76      
07:00 7.3 6.4 94     0 24.1 99.77     Mostly Cloudy
08:00 10.0 8.4 90     0 24.1 99.82     Mostly Cloudy
09:00 14.0 10.1 77   24 11 24.1 99.80     Mostly Cloudy
10:00 15.8 10.1 69   24 13 24.1 99.78     Mostly Cloudy
11:00 17.0 8.4 57   26 22 24.1 99.73     Mostly Cloudy
12:00 17.5 8.0 54   26 9 24.1 99.69     Mostly Cloudy
13:00 18.4 8.6 53   24 15 24.1 99.64     Mostly Cloudy
14:00 18.4 9.1 55   21 13 24.1 99.57     Mostly Cloudy
15:00 18.2 8.0 51   25 13 24.1 99.53     Mainly Clear
16:00 19.5 8.9 50   23 13 24.1 99.48     Mainly Clear
17:00 18.8 9.3 54   25 13 15.0 99.44      
18:00 15.7 9.6 67   21 6 15.0 99.41      
19:00 10.4 8.7 89   19 6 15.0 99.42      
20:00 12.3 9.0 80   19 7 15.0 99.43      
21:00 10.4 8.3 87   21 6 15.0 99.44      
22:00 11.1 8.7 85   22 6 15.0 99.43      
23:00 9.9 8.2 89   26 4 15.0 99.44      

Notes on Data Quality.

Legend

  • E = Estimated
  • M = Missing
  • NA = Not Available*
  • [empty] = Indicates an unobserved value
Date modified: